Simultaneous Nadir Overpasses (SNOs) Predictions

Prediction of SNOs between LANDSAT-8 and METOP-B Satellite Orbit:

Table of predicted SNOs for the next 14.0 days since TLE Epoch: 4/6/2018
Index Date (LANDSAT-8) Time (LANDSAT-8) Lat,Lon (LANDSAT-8) SZA (LANDSAT-8 ) Date (METOP-B) Time (METOP-B) Lat,Lon (METOP-B) SZA (METOP-B ) Distance(km) Time Diff (sec)
1 04/07/2018 15:08:09 81.13, -7.62 76.14 04/07/2018 15:07:10 81.13, -7.78 76.09 2.81 59
2 04/07/2018 15:57:35 -81.15, 160.30 103.84 04/07/2018 15:57:49 -81.15, 160.16 103.85 2.32 14
3 04/10/2018 10:42:22 81.14, 59.04 75.15 04/10/2018 10:41:30 81.14, 59.08 75.13 0.68 52
4 04/10/2018 11:31:48 -81.16,-133.01 104.83 04/10/2018 11:32:09 -81.17,-132.93 104.81 1.45 21
5 04/13/2018 06:16:36 81.13, 125.32 74.11 04/13/2018 06:15:52 81.13, 125.18 74.08 2.33 44
6 04/13/2018 07:06:02 -81.16, -66.72 105.85 04/13/2018 07:06:31 -81.16, -66.79 105.85 1.19 29
7 04/16/2018 01:50:48 81.15,-168.07 73.15 04/16/2018 01:50:11 81.15,-167.98 73.15 1.64 37
8 04/16/2018 02:40:14 -81.17, -0.08 106.81 04/16/2018 02:40:50 -81.17, 0.10 106.78 3.17 36
9 04/18/2018 21:25:01 81.16,-101.49 72.21 04/18/2018 21:24:32 81.15,-101.53 72.19 0.91 29




NCC Satellite Simultaneous Nadir Overpasses (SNOs) Prediction Service
